Location: Dunedin
(45.8670°S, 170.5000°E)
Time: 00:01:34
(UTC+13:00)

Cosmos 1633 Rocket - Visible Passes

Search period start: 23 November 2019 00:00
Search period end: 03 December 2019 00:00
Orbit: 607 x 623 km, 82.5° (Epoch: 22 November)

Date Brightness Start Highest point End Pass type
(mag) Time Alt. Az. Time Alt. Az. Time Alt. Az.
25 Nov 6.9 05:13:02 10° SE 05:14:07 11° ESE 05:15:12 10° ESE visible
29 Nov 6.8 04:40:44 10° SE 04:41:14 10° ESE 04:41:44 10° ESE visible
30 Nov 6.1 04:54:52 10° SSE 04:57:48 17° ESE 05:00:42 10° ENE visible
